OpenBCM V2.0.3 (Linux)

Packet Radio Mailbox

IZ3LSV

[San Dona' di P. JN]

 Login: GUEST





  
CX2SA  > KEPS     02.05.14 02:39l 164 Lines 4271 Bytes #999 (0) @ WW
BID : ORB14121.W
Read: GUEST
Subj: Orbital Elements  14121.WEATHER
Path: IZ3LSV<IR1UAW<IK1NHL<CX2SA
Sent: 140502/0036Z @:CX2SA.SAL.URY.SA #:5680 [Salto] FBB7.00e $:ORB14121.W
From: CX2SA@CX2SA.SAL.URY.SA
To  : KEPS@AMSAT


HR AMSAT ORBITAL ELEMENTS FOR WEATHER SATELLITES
FROM WA5QGD FORT WORTH,TX May 1, 2014
BID: ORB14121.W
TO ALL RADIO AMATEURS BT

Satellite: MET-2/21
Catalog number: 22782
Epoch time:      14120.41418641
Element set:      41
Inclination:      082.5512 deg
RA of node:       211.2031 deg
Eccentricity:    0.0022809
Arg of perigee:   042.9079 deg
Mean anomaly:     003.4098 deg
Mean motion:   13.83736406 rev/day
Decay rate:        3.3e-07 rev/day^2
Epoch rev:            4351
Checksum:              248

Satellite: OKEAN-4
Catalog number: 23317
Epoch time:      14121.47889582
Element set:     520
Inclination:      082.5369 deg
RA of node:       111.7207 deg
Eccentricity:    0.0019166
Arg of perigee:   251.1935 deg
Mean anomaly:     227.0708 deg
Mean motion:   14.85436364 rev/day
Decay rate:      1.113e-05 rev/day^2
Epoch rev:            5617
Checksum:              292

Satellite: NOAA-14
Catalog number: 23455
Epoch time:      14120.44927139
Element set:     736
Inclination:      098.7783 deg
RA of node:       204.7310 deg
Eccentricity:    0.0009974
Arg of perigee:   169.9291 deg
Mean anomaly:     249.4681 deg
Mean motion:   14.13968741 rev/day
Decay rate:        4.3e-07 rev/day^2
Epoch rev:           99720
Checksum:              335

Satellite: NOAA-15
Catalog number: 25338
Epoch time:      14120.47254576
Element set:     167
Inclination:      098.7508 deg
RA of node:       114.4299 deg
Eccentricity:    0.0009383
Arg of perigee:   287.4274 deg
Mean anomaly:     235.1548 deg
Mean motion:   14.25407876 rev/day
Decay rate:       1.61e-06 rev/day^2
Epoch rev:           83004
Checksum:              318

Satellite: RESURS
Catalog number: 25394
Epoch time:      14120.80762931
Element set:     644
Inclination:      098.4084 deg
RA of node:       087.1854 deg
Eccentricity:    0.0002297
Arg of perigee:   070.2276 deg
Mean anomaly:     347.8566 deg
Mean motion:   14.24391841 rev/day
Decay rate:        3.1e-07 rev/day^2
Epoch rev:           82157
Checksum:              304

Satellite: FENGYUN1
Catalog number: 25730
Epoch time:      14121.50589617
Element set:     136
Inclination:      098.9096 deg
RA of node:       082.8970 deg
Eccentricity:    0.0024392
Arg of perigee:   240.8274 deg
Mean anomaly:     254.4148 deg
Mean motion:   14.11834300 rev/day
Decay rate:       6.76e-06 rev/day^2
Epoch rev:           77093
Checksum:              307

Satellite: OKEAN-0
Catalog number: 25860
Epoch time:      14121.78114132
Element set:     237
Inclination:      098.0383 deg
RA of node:       085.9356 deg
Eccentricity:    0.0001514
Arg of perigee:   126.0440 deg
Mean anomaly:     297.0228 deg
Mean motion:   14.75218148 rev/day
Decay rate:       6.04e-06 rev/day^2
Epoch rev:           79531
Checksum:              280

Satellite: NOAA-16
Catalog number: 26536
Epoch time:      14120.36755824
Element set:     658
Inclination:      098.9939 deg
RA of node:       180.5129 deg
Eccentricity:    0.0009619
Arg of perigee:   324.2365 deg
Mean anomaly:     092.5290 deg
Mean motion:   14.13031470 rev/day
Decay rate:       2.05e-06 rev/day^2
Epoch rev:           70136
Checksum:              304

Satellite: NOAA-17
Catalog number: 27453
Epoch time:      14120.46802560
Element set:     563
Inclination:      098.3134 deg
RA of node:       122.6952 deg
Eccentricity:    0.0010559
Arg of perigee:   318.3246 deg
Mean anomaly:     195.7533 deg
Mean motion:   14.24741584 rev/day
Decay rate:       1.21e-06 rev/day^2
Epoch rev:           61589
Checksum:              300

Satellite: NOAA-18
Catalog number: 28654
Epoch time:      14120.49264419
Element set:      51
Inclination:      099.1446 deg
RA of node:       099.0451 deg
Eccentricity:    0.0014899
Arg of perigee:   042.0322 deg
Mean anomaly:     065.9229 deg
Mean motion:   14.12004272 rev/day
Decay rate:       2.81e-06 rev/day^2
Epoch rev:           46083
Checksum:              290

Satellite: NOAA-19
Catalog number: 33591
Epoch time:      14120.44645720
Element set:     215
Inclination:      098.9415 deg
RA of node:       065.6358 deg
Eccentricity:    0.0012968
Arg of perigee:   252.6095 deg
Mean anomaly:     245.4893 deg
Mean motion:   14.11703630 rev/day
Decay rate:        7.2e-07 rev/day^2
Epoch rev:           26925
Checksum:              308



Read previous mail | Read next mail


 13.09.2026 09:30:50lGo back Go up